User: anonymous   Login
Location: Nebula Knoll Observatory
(43.6666°N, 71.0000°W)
Time: 04:19:49
(UTC-05:00)
Language:

SeaSat 1 - Orbit

View from above orbital plane
View from above orbital plane
View from above satellite
View from above satellite

Ground track
Ground track

The orbit data is extracted from the following two-line orbital elements,

1 10967U 78064A   14330.66162826  .00000416  00000-0  16419-3 0  4446
2 10967 107.9945 150.0718 0001323 299.7328 114.5451 14.43176400911913
Epoch (UTC): 26 November 2014 15:52:44
Eccentricity: 0.0001323
inclination: 107.9945°
perigee height: 747 km
apogee height: 749 km
right ascension of ascending node: 150.0718°
argument of perigee: 299.7328°
revolutions per day: 14.43176400
mean anomaly at epoch: 114.5451°
orbit number at epoch: 91191

The dashed part of the orbit path shows where the satellite is in the earth's shadow,  

DLR